Regional Weather Roundup
Issued by NWS

Home | Current Version | Previous Version | Text Only | Print | Product List | Glossary On
Versions: 1 2 3 4 5 6 7 8 9 10 11 12 13 14 15 16 17 18 19 20 21 22 23 24 25 26 27 28 29 30 31 32 33 34 35 36 37 38 39 40 41 42 43 44 45 46 47 48 49 50
000
ASUS43 KDTX 190410
RWRMI
MICHIGAN HOURLY REGIONAL WEATHER ROUNDUP
NATIONAL WEATHER SERVICE DETROIT/PONTIAC MI
1100 PM EST THU DEC 18 2014

NOTE: "FAIR" INDICATES FEW OR NO CLOUDS BELOW 12,000 FEET WITH NO
SIGNIFICANT WEATHER AND/OR OBSTRUCTION TO VISIBILITY.

MIZ047>049-052>055-059>063-066>070-074>076-081>083-190500-
SOUTHEAST LOWER MICHIGAN

CITY           SKY/WX    TMP DP  RH WIND       PRES   REMARKS
ADRIAN         CLOUDY    29  26  89 NW7       30.20S
ALMA           CLOUDY    27  22  82 NE6       30.22R
ANN ARBOR      LGT SNOW  30  27  88 NW9       30.18R FOG
BAD AXE        CLOUDY    27  25  91 NW10      30.18R
DETROIT CITY   CLOUDY    31  26  82 N7        30.19R
DETROIT        FRZ DRZL  31  27  85 NW7       30.19R
FLINT          CLOUDY    28  24  85 N8        30.20R
GROSSE ILE     CLOUDY    30  28  93 NW3       30.18R
HILLSDALE      CLOUDY    28  28  99 W6        30.18R FOG
HOWELL         CLOUDY    28  27  97 CALM      30.18R FOG

CITY           SKY/WX    TMP DP  RH WIND       PRES   REMARKS
JACKSON        CLOUDY    28  26  92 W6        30.18S FOG
LAMBERTVILLE   CLOUDY    32  28  86 W6        30.20S
LANSING        CLOUDY    28  26  92 N6        30.20R
LAPEER         NOT AVBL
MASON          CLOUDY    29  27  93 N3        30.18S
MONROE         CLOUDY    30  28  93 W6        30.18S FOG
MT. CLEMENS    CLOUDY    28  27  99 N9        30.17R
PONTIAC        FRZ DRZL  27  25  92 N8        30.17R
PORT HOPE        N/A     29  22  75 N8        30.17R
PORT HURON     CLOUDY    27  23  86 W6        30.19R
TRI CITIES     CLOUDY    27  20  75 N6        30.22R
$$
MIZ043>046-050>051-056>058-064>065-071>073-077>080-190500-
SOUTHWEST LOWER MICHIGAN

CITY           SKY/WX    TMP DP  RH WIND       PRES   REMARKS
BATTLE CREEK   CLOUDY    29  25  85 SW8       30.19S FOG
BENTON HARBOR  CLOUDY    30  29  96 NW6       30.21S
BIG RAPIDS     CLOUDY    26  22  87 N5        30.20R
COLDWATER      CLOUDY    27  26  95 W6        30.20R FOG
HOLLAND        CLOUDY    31  23  72 N7        30.22R
GRAND RAPIDS   CLOUDY    29  23  78 N7        30.20R
KALAMAZOO      CLOUDY    28  24  85 SW8       30.20S FOG
MARSHALL       CLOUDY    27  25  94 SW7       30.19R FOG
MUSKEGON       CLOUDY    30  20  66 NE7       30.23S
$$
MIZ016>042-190500-
NORTHERN LOWER MICHIGAN

CITY           SKY/WX    TMP DP  RH WIND       PRES   REMARKS
ALPENA         CLEAR     16  12  84 CALM      30.21S
BEAVER ISLAND  CLEAR     14  12  95 CALM      30.24S
BELLAIRE       CLEAR     13  10  90 CALM      30.25S
CADILLAC       PTCLDY     8   5  87 CALM      30.18S
CHARLEVOIX     CLEAR     15  13  92 CALM      30.26S
FRANKFORT      CLEAR     14  13  96 CALM      30.24S
GAYLORD        PTCLDY     8   5  87 CALM      30.18S
GRAYLING       PTCLDY    16  14  94 CALM      30.20S
HARBOR SPRINGS PTCLDY    11   9  90 CALM      30.23S
HOUGHTON LAKE  CLOUDY    19  16  88 NE6       30.20R
MANISTEE       CLEAR     14  10  85 CALM      30.24S
OSCODA         CLEAR     17  15  88 NW5       30.20S
PELLSTON       PTCLDY     3  -1  83 CALM      30.24R
TRAVERSE CITY  CLEAR     17  14  88 CALM      30.24R
$$
MIZ007>008-015-190500-
EASTERN UPPER MICHIGAN

CITY           SKY/WX    TMP DP  RH WIND       PRES   REMARKS
KINROSS        PTCLDY    12   9  85 CALM      30.22S
MACKINAC ISLAN PTCLDY    21  15  76 NE10      30.22S
NEWBERRY       PTCLDY    15  14  95 NW5       30.23R
S. S. MARIE    PTCLDY    10   7  87 CALM      30.24F
$$
MIZ004>006-011>014-085-190500-
CENTRAL UPPER MICHIGAN

CITY           SKY/WX    TMP DP  RH WIND       PRES   REMARKS
MANISTIQUE     PTCLDY    15  14  95 N6        30.25S
ESCANABA       CLEAR     16  10  79 W3        30.26S
MENOMINEE      CLEAR     19  14  79 N5        30.26R
SAWYER-GWINN   CLOUDY    13  11  90 NW3       30.23R
$$
MIZ001>003-009>011-084-190500-
WESTERN UPPER MICHIGAN

CITY           SKY/WX    TMP DP  RH WIND       PRES   REMARKS
IRON MOUNTAIN  PTCLDY     8   4  83 CALM      30.23S
HOUGHTON       CLEAR      7   5  91 NE3       30.24S
COPPER HARBOR    N/A     21  16  81 W6        30.27S
IRONWOOD       CLOUDY    14  12  92 CALM      30.22S
$$

ABBREVIATIONS USED IN REMARKS
   TC - TEMPERATURE IN CELSIUS
  WCI - WIND CHILL INDEX
   HX - HEAT INDEX
  VSB - VISIBILITY



USA.gov is the U.S. government's official web portal to all federal, state and local government web resources and services.